Rome, NY

4:40 PM EDT on September 22, 2019 (GMT -0400)
Griffiss

Weather History for KRME - August, 2019

Change the Weather History Date:

Friday, August 23, 2019

  Actual Average Record
Temperature  
Mean Temperature 62 °F -  
Max Temperature 73 °F 76 °F 85 °F (1980)
Min Temperature 52 °F 54 °F 45 °F (1985)
Degree Days  
Heating Degree Days 2    
Growing Degree Days 12 (Base 50)    
Moisture  
Dew Point 52 °F    
Average Humidity 72    
Maximum Humidity 97    
Minimum Humidity 44    
Precipitation  
Precipitation 0.00 in - - ()
Sea Level Pressure  
Sea Level Pressure 30.05 in    
Wind  
Wind Speed 2 mph (NNW)    
Max Wind Speed 9 mph    
Max Gust Speed -    
Visibility 10 miles    
Events      
Averages and records for this station are not official NWS values.
T = Trace of Precipitation, MM = Missing Value Source: NWS Daily Summary

Daily Weather History Graph

Daily Weather History Graph

Search for Another Location

Airport or City:

Astronomy

Aug. 23, 2019 Rise Set
Actual Time 6:15 AM EDT 7:52 PM EDT
Civil Twilight 5:45 AM EDT 8:22 PM EDT
Nautical Twilight 5:09 AM EDT 8:58 PM EDT
Astronomical Twilight 4:29 AM EDT 9:37 PM EDT
Moon No Moon Rise 2:02 PM EDT (8/23)
Length of Visible Light 14h 36m
Length of Day
13h 36m
Waning Gibbous, 50% of the Moon is Illuminated
Aug 23
Waning Gibbous
Aug 30
New
Sep 5
First Quarter
Sep 14
Full
Sep 21
Last Quarter

Hourly Weather History & Observations

Time (EDT) Temp. Dew Point Humidity Pressure Visibility Wind Dir Wind Speed Gust Speed Precip Events Conditions
12:53 AM 55.9 °F 54.0 °F 93% 29.98 in 10.0 mi Calm Calm - N/A   Clear
1:53 AM 55.0 °F 53.1 °F 93% 29.98 in 10.0 mi Calm Calm - N/A   Partly Cloudy
2:53 AM 53.1 °F 52.0 °F 96% 29.98 in 10.0 mi ESE 4.6 mph - N/A   Partly Cloudy
3:53 AM 53.1 °F 52.0 °F 96% 29.98 in 10.0 mi Calm Calm - N/A   Clear
4:53 AM 52.0 °F 51.1 °F 97% 30.00 in 10.0 mi Calm Calm - N/A   Clear
5:53 AM 52.0 °F 50.0 °F 93% 30.01 in 10.0 mi Calm Calm - N/A   Clear
6:53 AM 52.0 °F 50.0 °F 93% 30.04 in 10.0 mi Calm Calm - N/A   Clear
7:53 AM 55.9 °F 54.0 °F 93% 30.05 in 10.0 mi Calm Calm - N/A   Clear
8:53 AM 62.1 °F 55.0 °F 78% 30.06 in 10.0 mi Calm Calm - N/A   Clear
9:53 AM 64.9 °F 55.9 °F 73% 30.06 in 10.0 mi Variable 3.5 mph - N/A   Clear
10:53 AM 68.0 °F 55.9 °F 65% 30.06 in 10.0 mi WNW 5.8 mph - N/A   Clear
11:53 AM 70.0 °F 55.0 °F 59% 30.06 in 10.0 mi Variable 3.5 mph - N/A   Scattered Clouds
12:53 PM 71.1 °F 53.1 °F 53% 30.04 in 10.0 mi Calm Calm - N/A   Mostly Cloudy
1:53 PM 73.0 °F 50.0 °F 44% 30.05 in 10.0 mi NW 4.6 mph - N/A   Mostly Cloudy
2:53 PM 71.1 °F 51.1 °F 49% 30.05 in 10.0 mi North 6.9 mph - N/A   Overcast
3:53 PM 71.1 °F 52.0 °F 51% 30.05 in 10.0 mi North 5.8 mph - N/A   Overcast
4:53 PM 73.0 °F 51.1 °F 46% 30.04 in 10.0 mi NNW 9.2 mph - N/A   Overcast
5:53 PM 72.0 °F 51.1 °F 48% 30.06 in 10.0 mi North 9.2 mph - N/A   Partly Cloudy
6:53 PM 68.0 °F 52.0 °F 56% 30.07 in 10.0 mi North 6.9 mph - N/A   Overcast
7:53 PM 64.9 °F 52.0 °F 63% 30.09 in 10.0 mi North 5.8 mph - N/A   Partly Cloudy
9:53 PM 61.0 °F 54.0 °F 78% 30.12 in 10.0 mi NW 4.6 mph - N/A   Overcast
10:53 PM 61.0 °F 50.0 °F 67% 30.12 in 10.0 mi Calm Calm - N/A   Scattered Clouds
11:53 PM 57.9 °F 51.1 °F 78% 30.14 in 10.0 mi Calm Calm - N/A   Mostly Cloudy